Location: Obersdorf
(47.4079°N, 10.2781°E)
Time: 06:02:47
(UTC+01:00)

NOAA 15 - Visible Passes

Search period start: 05 December 2021 00:00
Search period end: 15 December 2021 00:00
Orbit: 797 x 813 km, 98.7° (Epoch: 04 December)

Date Brightness Start Highest point End Pass type
(mag) Time Alt. Az. Time Alt. Az. Time Alt. Az.
05 Dec 7.6 06:42:58 10° ENE 06:45:36 14° E 06:48:14 10° ESE visible
05 Dec 5.3 18:05:11 10° SE 18:09:47 31° ENE 18:14:24 10° N visible
05 Dec 5.7 19:44:27 10° SSW 19:49:26 41° W 19:54:26 10° NNW visible
06 Dec 5.8 17:41:01 10° ESE 17:44:51 21° ENE 17:48:40 10° NNE visible
06 Dec 4.8 19:18:52 10° S 19:24:07 68° WSW 19:29:24 10° NNW visible
07 Dec 6.2 17:17:27 10° E 17:19:59 14° NE 17:22:31 10° NNE visible
07 Dec 4.4 18:53:38 10° SSE 18:58:54 76° ENE 19:04:11 10° NNW visible
07 Dec 7.2 20:36:02 10° SW 20:39:16 16° W 20:42:32 10° NW visible
08 Dec 7.3 07:06:00 10° NE 07:10:04 22° E 07:14:06 10° SE visible
08 Dec 4.7 18:28:44 10° SE 18:33:47 48° ENE 18:38:50 10° N visible
08 Dec 6.5 20:09:22 10° SSW 20:13:46 26° W 20:18:11 10° NW visible
09 Dec 7.6 06:42:00 10° ENE 06:44:32 13° E 06:47:03 10° ESE visible
09 Dec 5.3 18:04:10 10° ESE 18:08:45 31° ENE 18:13:18 10° N visible
09 Dec 5.7 19:43:23 10° S 19:48:22 42° W 19:53:22 10° NNW visible
10 Dec 5.8 17:40:02 10° ESE 17:43:48 20° ENE 17:47:34 10° NNE visible
10 Dec 4.8 19:17:48 10° S 19:23:04 69° WSW 19:28:20 10° NNW visible
11 Dec 6.2 17:16:30 10° E 17:18:56 13° NE 17:21:23 10° NNE visible
11 Dec 4.4 18:52:35 10° SSE 18:57:51 75° ENE 19:03:07 10° NNW visible
11 Dec 7.1 20:34:53 10° SW 20:38:12 17° W 20:41:30 10° NW visible
12 Dec 7.3 07:04:58 10° NE 07:08:59 22° E 07:12:58 10° SE visible
12 Dec 4.8 18:27:42 10° SE 18:32:44 47° ENE 18:37:45 10° N visible
12 Dec 6.5 20:08:17 10° SSW 20:12:41 27° W 20:17:08 10° NW visible
13 Dec 7.6 06:41:01 10° ENE 06:43:27 13° E 06:45:52 10° ESE visible
13 Dec 5.3 18:03:10 10° ESE 18:07:42 30° ENE 18:12:13 10° N visible
13 Dec 5.6 19:42:18 10° S 19:47:18 43° W 19:52:19 10° NNW visible
14 Dec 5.8 17:39:02 10° ESE 17:42:45 20° ENE 17:46:28 10° NNE visible
14 Dec 4.7 19:16:45 10° S 19:22:00 71° WSW 19:27:16 10° NNW visible
